sat.trackr.live / text

‹ back to catalog

STARLINK-34952

NORAD 65197 · 2025-175Z

PAYLOAD ACTIVE UNKNOWN

§ Identity

Operator
Country
US
Launch date
2025-08-14
Launch site
AFWTR
Launch vehicle
Mass (kg)
RCS (m²)

Purposes: comms

External: N2YO · Heavens-Above · Gunter

§ Orbital elements

Epoch: 2026-09-20T21:01:07.968288Z

Period
93.91 min
Inclination
97.2816°
Eccentricity
0.0002383
Mean motion
15.33450171 rev/d
Perigee alt
463.9 km
Apogee alt
467.2 km
Semi-major
6,843.7 km
B*
4.1697e-4
RAAN
132.9049°
Arg perigee
89.5541°
Mean anomaly
270.5975°
Rev number
6,219

§ Raw data

STARLINK-349521 65197U 25175Z   26263.87578667  .00013413  00000+0  41697-3 0  99922 65197  97.2816 132.9049 0002383  89.5541 270.5975 15.33450171 62192

JSON: /api/v1/satellites/65197 · /tle

For live sub-satellite position, see the globe view (requires WebGL).

§ Visibility from observer

Set your observer location to see the next 7 days of passes ≥ 10°. The values pass through the URL so the page stays shareable.

No JS? Fill the form by hand. The geolocation button needs JavaScript.